Tivat, Montenegro

11:10 AM CEST on May 25, 2017 (GMT +0200)
Tivat

Weather History for LYTV - September, 2012

Change the Weather History Date:

Saturday, September 1, 2012

  Actual Average Record
Temperature  
Mean Temperature 74 °F -  
Max Temperature 90 °F 77 °F 95 °F (2015)
Min Temperature 57 °F 56 °F 53 °F (2010)
Cooling Degree Days 8    
Growing Degree Days 24 (Base 50)    
Moisture  
Dew Point 53 °F    
Average Humidity 50    
Maximum Humidity 82    
Minimum Humidity 17    
Precipitation  
Precipitation 0.00 in - - ()
Sea Level Pressure  
Sea Level Pressure 29.97 in    
Wind  
Wind Speed 2 mph ()    
Max Wind Speed 7 mph    
Max Gust Speed 18 mph    
Visibility 8.3 miles    
Events      
Averages and records for this station are not official NWS values.
T = Trace of Precipitation, MM = Missing Value Source: Averaged Metar Reports

Daily Weather History Graph

Daily Weather History Graph

Search for Another Location

Airport or City:

Trip Planner

Search our weather history database for the weather conditions in past years. The results will help you decide how hot, cold, wet, or windy it might be!

Date:

Astronomy

Sep. 01, 2012 Rise Set
Actual Time 6:10 AM CEST 7:18 PM CEST
Civil Twilight 5:41 AM CEST 7:47 PM CEST
Nautical Twilight 5:06 AM CEST 8:22 PM CEST
Astronomical Twilight 4:30 AM CEST 8:58 PM CEST
Moon 7:23 PM CEST (9/1) 7:01 AM CEST (9/1)
Length of Visible Light 14h 06m
Length of Day
13h 08m
Full, 99% of the Moon is Illuminated
Sep 1
Full
Sep 8
Last Quarter
Sep 16
New
Sep 22
First Quarter
Sep 30
Full

Hourly Weather History & Observations

Time (CEST) Temp. Heat Index Dew Point Humidity Pressure Visibility Wind Dir Wind Speed Gust Speed Precip Events Conditions
12:00 AM 62.6 °F - 55.4 °F 77% 29.95 in - Variable 2.3 mph - N/A   Clear
12:30 AM 60.8 °F - 55.4 °F 82% 29.95 in - SSE 1.2 mph - N/A   Clear
1:00 AM 60.8 °F - 53.6 °F 77% 29.95 in - Variable 1.2 mph - N/A   Clear
1:30 AM 60.8 °F - 53.6 °F 77% 29.95 in - Variable 1.2 mph - N/A   Clear
2:30 AM 59.0 °F - 53.6 °F 82% 29.95 in - Variable 1.2 mph - N/A   Clear
3:00 AM 59.0 °F - 53.6 °F 82% 29.95 in - Calm Calm - N/A   Clear
3:30 AM 60.8 °F - 53.6 °F 77% 29.95 in - Variable 1.2 mph - N/A   Clear
4:00 AM 59.0 °F - 53.6 °F 82% 29.95 in - Variable 1.2 mph - N/A   Clear
5:00 AM 59 °F - 52 °F 71% 29.95 in 6 mi Calm Calm - -  
5:00 AM 59.0 °F - 51.8 °F 77% 29.95 in - Calm Calm - N/A   Clear
5:30 AM 59.0 °F - 50.0 °F 72% 29.95 in - Variable 2.3 mph - N/A   Clear
6:30 AM 59.0 °F - 51.8 °F 77% 29.95 in - Variable 2.3 mph - N/A   Clear
7:00 AM 59.0 °F - 51.8 °F 77% 29.95 in - Variable 1.2 mph - N/A   Clear
7:30 AM 60.8 °F - 51.8 °F 72% 29.95 in - Variable 1.2 mph - N/A   Clear
8:00 AM 66 °F - 52 °F 50% 29.97 in 6 mi Calm Calm - -  
8:00 AM 66.2 °F - 51.8 °F 60% 29.95 in - Variable 2.3 mph - N/A   Clear
8:30 AM 73.4 °F - 50.0 °F 44% 29.95 in - Calm Calm - N/A   Clear
9:00 AM 78.8 °F - 50.0 °F 36% 29.95 in - Variable 2.3 mph - N/A   Clear
9:30 AM 78.8 °F - 51.8 °F 39% 29.95 in - Variable 2.3 mph - N/A   Clear
10:00 AM 82.4 °F - 50.0 °F 32% 29.98 in - WNW 3.5 mph - N/A   Clear
11:00 AM 89 °F - 50 °F 17% 29.99 in 7 mi WNW 2.2 mph - -  
11:00 AM 89.6 °F - 50.0 °F 26% 29.98 in - Variable 3.5 mph - N/A   Clear
11:30 AM 89.6 °F - 48.2 °F 24% 29.98 in - West 6.9 mph - N/A   Clear
12:00 PM 86.0 °F 86.1 °F 60.8 °F 43% 29.98 in - SW 5.8 mph - N/A   Clear
12:30 PM 86.0 °F 85.4 °F 59.0 °F 40% 29.98 in - Variable 4.6 mph - N/A   Clear
1:00 PM 87.8 °F 86.1 °F 55.4 °F 33% 29.98 in - South 6.9 mph 18.4 mph N/A   Clear
1:30 PM 89.6 °F - 51.8 °F 27% 29.98 in - Variable 5.8 mph - N/A   Clear
2:00 PM 89 °F - 51 °F 17% 29.99 in 12 mi South 4.5 mph - -  
2:00 PM 89.6 °F - 50.0 °F 26% 29.98 in - Variable 5.8 mph - N/A   Clear
2:30 PM 89.6 °F - 50.0 °F 26% 29.98 in - Variable 3.5 mph - N/A   Clear
3:00 PM 89.6 °F - 51.8 °F 27% 29.95 in - North 3.5 mph 16.1 mph N/A   Clear
3:30 PM 89.6 °F - 50.0 °F 26% 29.95 in - NNW 6.9 mph - N/A   Clear
4:00 PM 87.8 °F - 51.8 °F 29% 29.95 in - Variable 4.6 mph - N/A   Clear
4:30 PM 87.8 °F - 50.0 °F 27% 29.95 in - NW 5.8 mph - N/A   Clear
5:00 PM 88 °F - 51 °F 19% 29.96 in 9 mi NW 4.5 mph - -  
5:00 PM 87.8 °F - 51.8 °F 29% 29.95 in - NW 4.6 mph - N/A   Clear
5:30 PM 89.6 °F - 51.8 °F 27% 29.95 in - West 5.8 mph - N/A   Clear
6:00 PM 86.0 °F 84.2 °F 53.6 °F 33% 29.95 in - Variable 2.3 mph - N/A   Clear
6:30 PM 84.2 °F 83.0 °F 55.4 °F 37% 29.98 in - West 3.5 mph - N/A   Clear
7:00 PM 82.4 °F 81.7 °F 55.4 °F 39% 29.98 in - Variable 2.3 mph - N/A   Clear
7:30 PM 77.0 °F - 57.2 °F 50% 29.98 in - Variable 2.3 mph - N/A   Clear
8:00 PM 74 °F - 56 °F 44% 30.00 in 12 mi Calm Calm - -  
8:00 PM 73.4 °F - 57.2 °F 57% 29.98 in - Variable 1.2 mph - N/A   Clear
9:00 PM 69.8 °F - 53.6 °F 56% 30.01 in - Variable 1.2 mph - N/A   Clear
9:30 PM 68.0 °F - 53.6 °F 60% 30.01 in - Variable 2.3 mph - N/A   Clear
10:00 PM 68.0 °F - 53.6 °F 60% 30.01 in - East 3.5 mph - N/A   Clear
10:30 PM 66.2 °F - 51.8 °F 60% 30.04 in - Variable 2.3 mph - N/A   Clear
11:00 PM 66 °F - 52 °F 52% 30.04 in 6 mi East 2.2 mph - -  
11:00 PM 66.2 °F - 51.8 °F 60% 30.04 in - Variable 2.3 mph - N/A   Clear
11:30 PM 64.4 °F - 51.8 °F 64% 30.04 in - Variable 1.2 mph - N/A   Clear